Satellite: AUBIESAT Catalog number: 37854 Epoch time: 13241.64952190 Element set: 571 Inclination: 101.7054 deg RA of node: 130.3663 deg Eccentricity: 0.0233048 Arg of perigee: 175.0836 deg Mean anomaly: 240.5124 deg Mean motion: 14.84928359 rev/day Decay rate: 4.206e-05 rev/day^2 Epoch rev: 9936 Checksum: 295
Satellite: HRBE Catalog number: 37855 Epoch time: 13241.67144264 Element set: 577 Inclination: 101.7051 deg RA of node: 130.1020 deg Eccentricity: 0.0234134 Arg of perigee: 175.6395 deg Mean anomaly: 241.1807 deg Mean motion: 14.84563472 rev/day Decay rate: 2.851e-05 rev/day^2 Epoch rev: 9935 Checksum: 284
Satellite: RS-39 Catalog number: 38051 Epoch time: 13241.67778935 Element set: 743 Inclination: 051.6341 deg RA of node: 215.3332 deg Eccentricity: 0.0011136 Arg of perigee: 164.9969 deg Mean anomaly: 177.4060 deg Mean motion: 15.34613531 rev/day Decay rate: 1.5170e-04 rev/day^2 Epoch rev: 8905 Checksum: 302
Satellite: E-STAR Catalog number: 38079 Epoch time: 13241.80636833 Element set: 402 Inclination: 069.4755 deg RA of node: 005.1033 deg Eccentricity: 0.0582802 Arg of perigee: 038.8606 deg Mean anomaly: 098.5687 deg Mean motion: 14.53781659 rev/day Decay rate: 4.1674e-04 rev/day^2 Epoch rev: 8041 Checksum: 320
Satellite: GOLIAT Catalog number: 38085 Epoch time: 13241.76616072 Element set: 331 Inclination: 069.4753 deg RA of node: 007.9960 deg Eccentricity: 0.0593703 Arg of perigee: 040.3908 deg Mean anomaly: 323.9505 deg Mean motion: 14.51324026 rev/day Decay rate: 2.3743e-04 rev/day^2 Epoch rev: 8033 Checksum: 288
Satellite: HORYU-2 Catalog number: 38340 Epoch time: 13241.83716573 Element set: 596 Inclination: 098.2214 deg RA of node: 190.1577 deg Eccentricity: 0.0013188 Arg of perigee: 024.0160 deg Mean anomaly: 336.1679 deg Mean motion: 14.71121333 rev/day Decay rate: 1.293e-05 rev/day^2 Epoch rev: 6894 Checksum: 293
Satellite: RS-40 Catalog number: 38736 Epoch time: 13241.08457875 Element set: 358 Inclination: 082.4781 deg RA of node: 109.6850 deg Eccentricity: 0.0021056 Arg of perigee: 164.6014 deg Mean anomaly: 195.5716 deg Mean motion: 12.42870387 rev/day Decay rate: 1.0e-07 rev/day^2 Epoch rev: 4930 Checksum: 301
Satellite: PROITERES Catalog number: 38756 Epoch time: 13241.82249263 Element set: 77 Inclination: 098.2485 deg RA of node: 320.2064 deg Eccentricity: 0.0011482 Arg of perigee: 229.4116 deg Mean anomaly: 130.6070 deg Mean motion: 14.74314473 rev/day Decay rate: 6.47e-06 rev/day^2 Epoch rev: 5224 Checksum: 278
Satellite: RAIKO Catalog number: 38852 Epoch time: 13218.07382584 Element set: 340 Inclination: 051.6160 deg RA of node: 184.0336 deg Eccentricity: 0.0004489 Arg of perigee: 261.9162 deg Mean anomaly: 100.6538 deg Mean motion: 16.48474690 rev/day Decay rate: 2.4681979e-01 rev/day^2 Epoch rev: 4784 Checksum: 326
Satellite: FITSAT 1 Catalog number: 38853 Epoch time: 13184.86912902 Element set: 315 Inclination: 051.6252 deg RA of node: 351.6077 deg Eccentricity: 0.0011722 Arg of perigee: 245.9321 deg Mean anomaly: 114.2104 deg Mean motion: 16.39337660 rev/day Decay rate: 6.638326e-02 rev/day^2 Epoch rev: 4270 Checksum: 289
Satellite: TechEdSat Catalog number: 38854 Epoch time: 13124.93253577 Element set: 290 Inclination: 051.6449 deg RA of node: 297.0261 deg Eccentricity: 0.0010505 Arg of perigee: 310.8629 deg Mean anomaly: 049.0629 deg Mean motion: 16.38844728 rev/day Decay rate: 1.1592855e-01 rev/day^2 Epoch rev: 3329 Checksum: 325
Satellite: F 1 Catalog number: 38855 Epoch time: 13129.77714356 Element set: 287 Inclination: 051.5085 deg RA of node: 272.4145 deg Eccentricity: 0.0008326 Arg of perigee: 194.2908 deg Mean anomaly: 166.5495 deg Mean motion: 16.49710473 rev/day Decay rate: 2.7424026e-01 rev/day^2 Epoch rev: 3394 Checksum: 332
Satellite: WeWish Catalog number: 38856 Epoch time: 13069.98095549 Element set: 248 Inclination: 051.6166 deg RA of node: 215.0521 deg Eccentricity: 0.0008325 Arg of perigee: 316.0438 deg Mean anomaly: 044.8765 deg Mean motion: 16.41348316 rev/day Decay rate: 1.6701328e-01 rev/day^2 Epoch rev: 2458 Checksum: 318
Satellite: OSSI-1 Catalog number: 39131 Epoch time: 13188.41684431 Element set: 8 Inclination: 064.8841 deg RA of node: 114.8425 deg Eccentricity: 0.0051126 Arg of perigee: 026.6892 deg Mean anomaly: 350.0589 deg Mean motion: 16.22925119 rev/day Decay rate: 1.502874e-02 rev/day^2 Epoch rev: 1237 Checksum: 296
Satellite: BEESAT-3 Catalog number: 39134 Epoch time: 13241.53836718 Element set: 317 Inclination: 064.8802 deg RA of node: 338.1321 deg Eccentricity: 0.0004873 Arg of perigee: 210.6828 deg Mean anomaly: 237.2406 deg Mean motion: 15.00847972 rev/day Decay rate: 4.833e-05 rev/day^2 Epoch rev: 1983 Checksum: 299
Satellite: BEESAT-2 Catalog number: 39136 Epoch time: 13241.75100059 Element set: 307 Inclination: 064.8787 deg RA of node: 337.4822 deg Eccentricity: 0.0004742 Arg of perigee: 211.6613 deg Mean anomaly: 291.1083 deg Mean motion: 15.00767203 rev/day Decay rate: 4.289e-05 rev/day^2 Epoch rev: 1986 Checksum: 289
/EX